Weather History for Fort Myers Airport, FL

Change the Weather History Date:

Monday, November 5, 2012

  Actual Average Record
Temperature  
Mean Temperature 70 °F -  
Max Temperature 77 °F 80 °F 89 °F (1948)
Min Temperature 64 °F 62 °F 45 °F (1955)
Cooling Degree Days 6    
Growing Degree Days 20 (Base 50)    
Moisture  
Dew Point 64 °F    
Average Humidity 82    
Maximum Humidity 93    
Minimum Humidity 62    
Precipitation  
Precipitation 0.00 in - - ()
Sea Level Pressure  
Sea Level Pressure 29.98 in    
Wind  
Wind Speed 1 mph (West)    
Max Wind Speed 8 mph    
Max Gust Speed -    
Visibility 8 miles    
Events Rain    
Averages and records for this station are not official NWS values.
T = Trace of Precipitation, MM = Missing Value Source: NWS Daily Summary

Daily Weather History Graph

Daily Weather History Graph

Search for Another Location

Airport:

Trip Planner

Search our weather history database for the weather conditions in past years. The results will help you decide how hot, cold, wet, or windy it might be!

Date:

Astronomy

Nov. 05, 2012 Rise Set
Actual Time 6:39 AM EST 5:41 PM EST
Civil Twilight 6:15 AM EST 6:05 PM EST
Nautical Twilight 5:47 AM EST 6:33 PM EST
Astronomical Twilight 5:20 AM EST 7:00 PM EST
Moon 11:16 PM EST (11/5) 11:56 AM EST (11/5)
Length of Visible Light 11h 50m
Length of Day
11h 02m
Waning Gibbous, 63% of the Moon is Illuminated
Nov 5
Waning Gibbous
Nov 6
Last Quarter
Nov 13
New
Nov 20
First Quarter
Nov 28
Full

Hourly Weather History & Observations

Time (EST) Temp. Dew Point Humidity Pressure Visibility Wind Dir Wind Speed Gust Speed Precip Events Conditions
12:53 AM 66.0 °F 63.0 °F 90% 30.01 in 9.0 mi Calm Calm - N/A   Clear
1:53 AM 64.0 °F 61.0 °F 90% 30.02 in 6.0 mi Calm Calm - N/A   Clear
2:53 AM 64.9 °F 62.1 °F 90% 30.00 in 6.0 mi Calm Calm - N/A   Clear
3:53 AM 64.9 °F 63.0 °F 93% 30.00 in 6.0 mi Calm Calm - N/A   Clear
4:53 AM 64.0 °F 62.1 °F 93% 30.00 in 6.0 mi Calm Calm - N/A   Clear
5:53 AM 64.9 °F 62.1 °F 90% - 7.0 mi Calm Calm - N/A   Clear
6:53 AM 64.0 °F 61.0 °F 90% - 4.0 mi Calm Calm - N/A   Clear
7:53 AM 66.0 °F 63.0 °F 90% 30.02 in 4.0 mi Calm Calm - N/A   Clear
8:53 AM 69.1 °F 64.9 °F 87% 30.02 in 7.0 mi Calm Calm - N/A   Clear
9:53 AM 73.0 °F 66.0 °F 79% 30.02 in 10.0 mi Calm Calm - N/A   Clear
10:53 AM 75.9 °F 64.0 °F 67% 30.01 in 10.0 mi NNE 4.6 mph - N/A   Clear
11:53 AM 77.0 °F 63.0 °F 62% 29.99 in 10.0 mi Calm Calm - N/A   Mostly Cloudy
12:53 PM 75.0 °F 64.0 °F 69% 29.97 in 10.0 mi West 6.9 mph - 0.00 in Rain Light Rain
1:53 PM 75.9 °F 64.0 °F 67% 29.94 in 10.0 mi West 4.6 mph - 0.00 in   Mostly Cloudy
2:05 PM 77.0 °F 64.4 °F 65% 29.95 in 10.0 mi NW 3.5 mph - N/A   Scattered Clouds
2:53 PM 75.9 °F 63.0 °F 64% 29.94 in 10.0 mi WNW 4.6 mph - N/A   Scattered Clouds
3:53 PM 73.9 °F 64.9 °F 73% 29.94 in 10.0 mi WSW 8.1 mph - N/A   Mostly Cloudy
4:53 PM 73.0 °F 64.9 °F 76% 29.95 in 10.0 mi WSW 8.1 mph - N/A   Mostly Cloudy
5:53 PM 71.1 °F 66.0 °F 84% 29.96 in 10.0 mi WSW 5.8 mph - N/A   Mostly Cloudy
6:53 PM 70.0 °F 64.9 °F 84% 29.96 in 10.0 mi WSW 3.5 mph - N/A   Clear
7:53 PM 71.1 °F 66.0 °F 84% 29.97 in 10.0 mi Calm Calm - N/A   Clear
8:53 PM 68.0 °F 64.9 °F 90% 29.98 in 10.0 mi SSW 3.5 mph - N/A   Clear
9:53 PM 70.0 °F 64.9 °F 84% 29.97 in 10.0 mi Calm Calm - N/A   Clear
10:53 PM 68.0 °F 64.9 °F 90% 29.96 in 9.0 mi Calm Calm - N/A   Clear
11:53 PM 68.0 °F 64.9 °F 90% 29.95 in 9.0 mi Calm Calm - N/A   Clear